Weather Roundup
Issued by NWS Corpus Christi, TX

Home | Current Version | Previous Version | Text Only | Print | Product List | Glossary On
Versions: 1 2 3 4 5 6 7 8 9 10 11 12 13 14 15 16 17 18 19 20 21 22 23 24 25 26 27 28 29 30 31 32 33 34 35 36 37 38 39 40 41 42 43 44 45 46 47 48 49 50
000
ASUS44 KCRP 181510
HRRCRP

SOUTH TEXAS REGIONAL WEATHER ROUNDUP
NATIONAL WEATHER SERVICE CORPUS CHRISTI TX
900 AM CST SUN NOV 18 2018


TXZ229>244-181600-
...CORPUS CHRISTI AREA OBSERVATIONS...

CITY           SKY/WX    TMP DP  RH WIND       PRES   REMARKS
CORPUS CHRISTI PTSUNNY   72  68  87 SE10      30.11R
NAS CORPUS CHR CLOUDY    74  70  87 E8        30.11R
ROCKPORT       CLOUDY    68  66  93 E9        30.13R
KINGSVILLE ARP CLOUDY    72  72 100 CALM      30.13R
ALICE          CLOUDY    69  67  93 NE3       30.12R
$$

...VICTORIA AREA OBSERVATIONS...

CITY           SKY/WX    TMP DP  RH WIND       PRES   REMARKS
PORT LAVACA    RAIN      67  65  94 SE5       30.16R
VICTORIA       LGT RAIN  65  63  93 CALM      30.16R
BEEVILLE       CLOUDY    69  65  85 NE5       30.14R
PLEASANTON     LGT RAIN  63  59  88 NE10G16   30.18R
SAN ANTONIO    CLOUDY    51  46  83 N13       30.22R
$$

...LAREDO AREA OBSERVATIONS...

CITY           SKY/WX    TMP DP  RH WIND       PRES   REMARKS
LAREDO         CLOUDY    66  64  94 CALM      30.13R
COTULLA        CLOUDY    65  64  97 NE7       30.15R
DEL RIO        CLOUDY    49  44  83 NW12      30.24R
MCALLEN        FOG       71  70  96 CALM      30.10R VSB 3/4
HEBBRONVILLE   CLOUDY    67  66  96 CALM      30.13R FOG
$$

...OTHER TEXAS OBSERVATIONS...

CITY           SKY/WX    TMP DP  RH WIND       PRES   REMARKS
BROWNSVILLE    LGT RAIN  73  72  96 SE6       30.09R
HOUSTON        PTSUNNY   64  60  87 E7        30.18R
COL. STATION   LGT RAIN  49  46  90 N13       30.25R FOG
AUSTIN         CLOUDY    49  43  80 N17       30.26R
WACO           CLOUDY    44  37  76 N15G21    30.31R
FORT WORTH     CLOUDY    40  34  79 NW16      30.29R WCI  31
WICHITA FALLS  CLOUDY    33  29  85 NW13      30.36R WCI  24
LUBBOCK        CLOUDY    32  26  78 N7        30.32R
EL PASO        PTSUNNY   45  28  51 S6        30.17R
$$

...MARINE OBSERVATIONS...

STATION/POSITION TIME  SKY/WX   TEMP    WIND        PRES    VSBY  WAVE   SWELL
                                AIR SEA DIR/SP/G                  HT/PER HT/PER
                 (UTC)          (F)     (DEG/KT/KT) (MB)    (MI)  (FT/S) (FT/S)
PORT ARANSAS     1500            69 67  100/ 10/ 10 1020.1R
BUOY 90 E PORT A 1450            69 76  150/ 14/ 17 1020.9R         5/ 5
BUOY 45 SE BAFFI 1450            74 77  120/ 14/ 17 1019.3R         6/ 7   3/ 7
BUOY 200 E PT IS 1450            75 77  120/ 12/ 14 1020.9R         3/ 5
BUOY 15 E GALVES 1450            65 63   60/  8/  8 1022.2R         2/ 4   2/ 4
$$




USA.gov is the U.S. government's official web portal to all federal, state and local government web resources and services.